CDT,Max TemperatureF,Mean TemperatureF,Min TemperatureF,Max Dew PointF,MeanDew PointF,Min DewpointF,Max Humidity, Mean Humidity, Min Humidity, Max Sea Level PressureIn, Mean Sea Level PressureIn, Min Sea Level PressureIn, Max VisibilityMiles, Mean VisibilityMiles, Min VisibilityMiles, Max Wind SpeedMPH, Mean Wind SpeedMPH, Max Gust SpeedMPH,PrecipitationIn, CloudCover, Events, WindDirDegrees
2012-3-1,68,52,37,41,34,28,82,51,26,29.94,29.82,29.63,10,10,10,13,4,21,0.00,0,,174
2012-3-2,79,59,39,63,48,29,90,66,30,29.91,29.57,29.38,10,10,2,33,12,51,0.06,3,Rain-Thunderstorm,249
2012-3-3,54,44,33,31,23,12,89,51,21,30.01,29.95,29.90,10,10,10,24,7,32,0.00,0,,276
2012-3-4,60,46,32,31,25,20,79,46,23,30.04,29.95,29.84,10,10,10,17,4,24,0.00,4,,254
2012-3-5,51,42,34,28,26,23,70,52,33,30.45,30.36,30.13,10,10,10,18,9,36,0.00,0,,104
2012-3-6,70,52,34,37,33,25,82,46,30,30.31,30.21,30.12,10,10,10,23,9,33,0.00,0,,177
2012-3-7,71,62,54,56,46,33,68,54,44,30.18,30.10,30.02,10,10,10,22,14,34,0.00,5,,183
2012-3-8,66,54,39,61,50,32,94,86,68,30.41,30.13,29.98,10,7,2,24,13,32,1.14,7,Rain,309
2012-3-9,62,52,42,32,29,26,60,41,28,30.51,30.46,30.42,10,10,10,21,8,21,0.00,0,,21
2012-3-10,59,48,36,41,32,26,86,59,31,30.50,30.39,30.28,10,10,10,9,5,,0.00,0,,69
2012-3-11,61,51,41,57,48,35,94,82,62,30.28,30.13,30.01,10,8,2,17,5,23,0.35,7,Rain,139
2012-3-12,73,66,59,61,58,53,96,80,59,30.02,29.98,29.93,10,10,3,29,11,34,0.03,5,Rain,195
2012-3-13,77,62,50,62,55,48,94,80,54,30.13,30.08,30.03,10,8,0,12,3,,0.00,0,Fog,190
2012-3-14,81,67,53,66,58,51,100,84,56,30.14,30.09,30.02,10,6,0,22,4,30,0.00,1,Fog-Thunderstorm,202
2012-3-15,80,70,61,66,62,55,94,83,60,30.15,30.11,30.02,10,9,1,17,6,25,0.32,4,Rain-Thunderstorm,163
2012-3-16,73,66,59,65,61,57,96,84,73,30.13,30.09,30.03,10,8,1,15,9,29,3.50,4,Rain-Thunderstorm,151
2012-3-17,77,67,57,64,59,55,100,87,59,30.10,30.06,30.01,10,5,0,20,2,25,0.00,2,Fog,186
2012-3-18,79,69,60,67,63,58,93,77,66,30.12,30.05,30.00,10,10,10,17,8,23,0.00,2,,188
2012-3-19,79,72,66,64,60,55,81,68,48,30.02,29.94,29.86,10,10,9,17,8,28,0.00,0,,168
2012-3-20,81,72,63,61,57,53,81,63,39,29.97,29.90,29.84,10,10,10,20,10,26,0.00,2,,144
2012-3-21,75,70,66,62,58,56,78,66,55,29.98,29.93,29.88,10,10,10,18,8,30,0.00,3,Rain,137
2012-3-22,66,60,53,58,51,48,94,80,59,30.06,29.99,29.94,10,10,5,14,7,23,0.10,4,Rain,152
2012-3-23,66,58,52,59,51,42,96,78,46,29.95,29.90,29.84,10,9,4,18,5,36,0.13,6,Rain-Thunderstorm,222
2012-3-24,75,62,50,59,53,47,90,75,48,29.94,29.89,29.84,10,9,2,14,5,20,0.18,6,Rain,289
2012-3-25,75,65,55,60,56,53,93,76,53,30.06,30.00,29.94,10,10,8,9,4,,0.01,1,,12
2012-3-26,77,64,53,60,55,50,93,74,48,30.16,30.10,30.06,10,9,6,9,2,,0.00,0,,83
2012-3-27,80,66,54,59,54,48,80,64,47,30.15,30.06,29.98,10,10,10,14,6,,0.00,0,,155
2012-3-28,82,70,57,62,57,54,93,65,38,30.04,29.98,29.92,10,10,6,13,5,17,0.00,0,,205
2012-3-29,82,69,57,60,57,53,93,67,38,29.97,29.91,29.83,10,9,4,14,4,18,0.00,1,,205
2012-3-30,79,70,60,61,60,57,90,72,52,29.86,29.80,29.73,10,10,9,17,7,26,0.00,0,,203
2012-3-31,82,69,57,63,59,55,100,80,47,29.87,29.82,29.78,10,8,1,7,2,,0.01,0,,48